EW4079 Weather Reports


time (UTC)temp
C
wind
direction
speed
KPH
gust
KPH
rain 1hr
cm
rain 24hr
cm
rain mn
cm
humidity
%
barometer
mb
20260502163008 15 82 0.0 0.0 0.00 0.00 0.00 38 1012.0
20260502161609 14 138 0.0 0.0 0.00 0.00 0.00 43 1012.2
20260502151604 9 360 0.0 0.0 0.00 0.00 0.00 56 1012.7
20260502123014 -1 150 1.6 0.0 0.00 0.00 0.00 80 1012.7
20260502121516 -1 155 0.0 0.0 0.00 0.00 0.00 82 1012.5
20260502114505 -1 173 0.0 0.0 0.00 0.00 0.00 81 1012.4
20260502113006 -1 173 0.0 0.0 0.00 0.00 0.00 82 1012.3
20260502111506 -1 173 0.0 0.0 0.00 0.00 0.00 80 1012.4
20260502110008 0 173 0.0 0.0 0.00 0.00 0.00 79 1012.3
20260502104506 0 173 0.0 0.0 0.00 0.00 0.00 79 1012.2
20260502103005 0 173 0.0 0.0 0.00 0.00 0.00 78 1012.2
20260502101504 0 173 0.0 0.0 0.00 0.00 0.00 78 1012.2
20260502091504 1 173 0.0 0.0 0.00 0.00 0.00 74 1011.9
20260502070113 4 360 3.2 0.0 0.00 0.00 0.00 64 1012.1
20260502064625 5 360 8.0 0.0 0.00 0.00 0.00 61 1011.9
20260502063102 5 360 8.0 0.0 0.00 0.00 0.00 62 1012.1
20260502061600 5 360 4.8 0.0 0.00 0.00 0.00 60 1012.1
20260502060059 5 360 4.8 0.0 0.00 0.00 0.00 60 1012.0
20260502054608 6 360 6.4 0.0 0.00 0.00 0.00 59 1012.0
20260502053059 6 360 6.4 0.0 0.00 0.00 0.00 59 1011.8
20260502051600 7 360 9.7 0.0 0.00 0.00 0.00 55 1011.8
20260502050059 7 360 8.0 0.0 0.00 0.00 0.00 52 1011.7
20260502044600 8 360 9.7 0.0 0.00 0.00 0.00 50 1011.8
20260502043058 8 360 9.7 0.0 0.00 0.00 0.00 48 1011.7
20260502041605 8 360 9.7 0.0 0.00 0.00 0.00 49 1011.7
20260502040058 9 360 9.7 0.0 0.00 0.00 0.00 49 1011.7
20260502034558 10 360 8.0 0.0 0.00 0.00 0.00 45 1011.5
20260502033113 11 360 8.0 0.0 0.00 0.00 0.00 45 1011.4
20260502031602 11 360 6.4 0.0 0.00 0.00 0.00 42 1011.2
20260502030059 13 360 6.4 0.0 0.00 0.00 0.00 37 1011.0
20260502024609 13 360 4.8 0.0 0.00 0.00 0.00 35 1010.8
20260502023130 13 360 3.2 0.0 0.00 0.00 0.00 36 1010.7
20260502021557 16 360 0.0 0.0 0.00 0.00 0.00 30 1010.7
20260502020059 18 360 0.0 0.0 0.00 0.00 0.00 29 1010.6
20260502014557 20 84 0.0 0.0 0.00 0.00 0.00 26 1010.6
20260502013058 21 70 0.0 0.0 0.00 0.00 0.00 19 1010.6
20260502011556 21 63 3.2 0.0 0.00 0.00 0.00 18 1010.6
20260502010054 22 62 0.0 0.0 0.00 0.00 0.00 18 1010.7
20260502004552 22 61 0.0 0.0 0.00 0.00 0.00 19 1010.7
20260502003054 21 61 0.0 0.0 0.00 0.00 0.00 17 1010.9
20260502001610 21 61 1.6 0.0 0.00 0.00 0.00 19 1011.0
20260501234548 21 49 0.0 0.0 0.00 0.00 0.00 20 1011.3
20260501233047 21 36 0.0 0.0 0.00 0.00 0.00 18 1011.3
20260501231545 21 296 0.0 0.0 0.00 0.00 0.00 18 1011.4
20260501230044 22 309 0.0 0.0 0.00 0.00 0.00 17 1011.5
20260501224602 21 360 0.0 0.0 0.00 0.00 0.00 19 1011.8
20260501223042 21 349 8.0 0.0 0.00 0.00 0.00 17 1011.8
20260501221544 21 331 0.0 0.0 0.00 0.00 0.00 20 1011.9
20260501220042 21 42 0.0 0.0 0.00 0.00 0.00 18 1012.1
20260501214537 21 335 1.6 0.0 0.00 0.00 0.00 19 1012.4
20260501213042 21 58 0.0 0.0 0.00 0.00 0.00 19 1012.6
20260501211533 21 53 0.0 0.0 0.00 0.00 0.00 19 1012.8
20260501210031 20 26 0.0 0.0 0.00 0.00 0.00 21 1013.0
20260501204531 20 5 3.2 0.0 0.00 0.00 0.00 20 1013.2
20260501203030 20 268 0.0 0.0 0.00 0.00 0.00 19 1013.3
20260501201528 20 268 1.6 0.0 0.00 0.00 0.00 22 1013.5
20260501200037 19 360 12.9 0.0 0.00 0.00 0.00 18 1013.4
20260501194526 19 66 3.2 0.0 0.00 0.00 0.00 22 1013.5
20260501193028 19 42 0.0 0.0 0.00 0.00 0.00 25 1013.7
20260501191522 20 223 1.6 0.0 0.00 0.00 0.00 22 1013.9
20260501190032 18 360 0.0 0.0 0.00 0.00 0.00 24 1013.9
20260501184519 19 245 3.2 0.0 0.00 0.00 0.00 24 1014.1
20260501183023 19 273 1.6 0.0 0.00 0.00 0.00 24 1014.4
20260501181514 18 115 6.4 0.0 0.00 0.00 0.00 25 1014.5
20260501180012 17 311 4.8 0.0 0.00 0.00 0.00 25 1014.7